Regional Weather Roundup
Issued by NWS

Home | Current Version | Previous Version | Text Only | Print | Product List | Glossary Off
Versions: 1 2 3 4 5 6 7 8 9 10 11 12 13 14 15 16 17 18 19 20 21 22 23 24 25 26 27 28 29 30 31 32 33 34 35 36 37 38 39 40 41 42 43 44 45 46 47 48 49 50

360
ASUS45 KSLC 242010
RWRUT

UTAH REGIONAL WEATHER ROUNDUP
NATIONAL WEATHER SERVICE SALT LAKE CITY UT
200 PM MDT SAT SEP 24 2016

UTZ001>011-023>025-242100-

NORTHERN UTAH

CITY           SKY/WX    TMP DP  RH WIND       PRES   REMARKS
BRIGHAM CITY     N/A     57  42  56 CALM      30.26S
HILL AFB       PTSUNNY   55  43  62 N8        30.27S
LOGAN          PTSUNNY   56  44  64 CALM      30.25S
OGDEN          MOSUNNY   58  44  60 N7        30.26S
PROVO AIRPORT  CLOUDY    52  47  83 SE6       30.29S
SALT LAKE CITY PTSUNNY   60  45  57 NW8       30.26S
VERNAL         MOSUNNY   52  42  69 VRB6      30.19R
WENDOVER       SUNNY     64  37  36 N17G25    30.26F
HEBER CITY     CLOUDY    50  41  71 SW7       30.25S
WEST JORDAN    CLOUDY    55  45  67 N8        30.28S

$$

UTZ012>022-026-027-242100-

SOUTHERN/CENTRAL UTAH

CITY           SKY/WX    TMP DP  RH WIND       PRES   REMARKS
BLANDING       PTSUNNY   59  33  38 SE5       30.28F
BRYCE CANYON   MOSUNNY   54  33  45 NW8G20    30.31S
CEDAR CITY     SUNNY     65  34  31 NE10G18   30.26R
DELTA          PTSUNNY   59  41  51 NE7       30.28S
MILFORD        MOSUNNY   65  37  35 NE13G21   30.26S
MOAB/CYNLANDS  MOSUNNY   64  36  35 W12G22    30.16S
PRICE          CLOUDY    54  38  54 N15G26    30.24R
ST GEORGE      CLOUDY    73  36  25 N6        30.17F

$$

REGIONAL REPORTS     COLORADO/ARIZONA

CITY           SKY/WX    TMP DP  RH WIND       PRES   REMARKS
CRAIG, CO      LGT RAIN  45  40  82 W13       30.20R
GRAND JUNCTION CLOUDY    58  43  57 N8        30.19S
RIFLE          LGT RAIN  52  44  74 VRB3      30.21S
MONTROSE       CLOUDY    54  36  50 N7        30.24R
CORTEZ         MOSUNNY   58  34  40 CALM      30.21F
PAGE, AZ       SUNNY     69  31  24 E7        30.17F
GRAND CANYON   SUNNY     61  32  33 E8        30.27S
KINGMAN        SUNNY     77  32  19 NE8       30.15S
FLAGSTAFF      SUNNY     61  29  29 NE13G23   30.25S

$$

REGIONAL REPORTS    NEVADA/IDAHO/WYOMING

CITY           SKY/WX    TMP DP  RH WIND       PRES   REMARKS
LAS VEGAS, NV  SUNNY     83  26  12 N9G18     30.10F
ELY            SUNNY     61  33  35 MISG      30.32S
ELKO           SUNNY     63  31  30 CALM      30.32F
POCATELLO, ID  PTSUNNY   59  44  57 SW13      30.24S
BURLEY         MOSUNNY   59  41  51 W14G25    30.25F
EVANSTON, WY   CLOUDY    47  35  63 W20       30.27R
ROCK SPRINGS   LGT RAIN  42  40  92 SW8       30.18S

$$




USA.gov is the U.S. government's official web portal to all federal, state and local government web resources and services.